Weather in Tsagan-Oluy

Russia / Zabaykalsky Krai     50°28′05″N   117°09′29″E
temp.,
°C
wind,
m/s
gust,
m/s
humid.,
%
clouds,
%
prec.,
mm/h
press.,
hPa
HPBL,
m
29 november, mon
mon2900:00−18nw22918 0.0 103317
03:00−19wnw22959 0.0 103316
06:00−19nw229787 0.0 103317
09:00−16w1190100 0.0 103139
12:00−13wsw2575100 0.0 1029358
15:00−12w257695 0.0 1027413
18:00−18wnw22957 0.0 102913
21:00−18wnw229618 0.0 102921
30 november, tue
tue3000:00−18wnw229952 0.0 102823
03:00−19wnw329922 0.0 102824
06:00−19wnw2210070 0.0 102720
09:00−18nw229888 0.0 102628
12:00−13wnw258976 0.0 1024242
15:00−11nw368319 0.0 1022319
18:00−17nw229615 0.0 102618
21:00−19nw229616 0.0 102816
1 december, wed
wed100:00−19nw22969 0.0 102915
03:00−20nw229650 0.0 102915
06:00−20wnw229521 0.0 102812
09:00−20wnw229570 0.0 102611
12:00−12w288980 0.0 1020287
15:00−10w3118512 0.0 1015435
18:00−16w229718 0.0 101510
21:00−9wnw51576100 0.0 1009551
2 december, thu
thu200:00−5wnw101867100 0.0 10041035
03:00−6nw10177691 0.3 10031114
06:00−10nw10176810 0.1 1006977
09:00−13nw816661 0.1 1010722
12:00−12nw915621 0.0 10121115
15:00−11nnw9156510 0.0 1013941
18:00−16nw35853 0.0 101873
21:00−18wnw33855 0.0 102129
3 december, fri
fri300:00−19wnw328789 0.0 102223
03:00−20wnw339472 0.0 102233
06:00−20wnw329617 0.0 102123
09:00−20wnw229716 0.0 102218
12:00−13wnw35847 0.0 1020222
15:00−11wnw24815 0.0 1019186
18:00−17wnw229513 0.0 102310
21:00−16wnw2193100 0.0 102410